Retour au catalogue

COSMOS 1375 DEB

ActifLEO
NORAD 18279·DEBRIS·🇷🇺 Russia

Lancé Jun 6, 1982 depuis Plesetsk Cosmodrome

Loading…

Prochains Passages (prochaines 24 heures)

TLE

FraisSource: Space-Track

Époque: Sep 13, 2026, 23:25 UTC

1 18279U 82055BB  26256.97625574  .00001404  00000-0  95197-3 0  9996
2 18279  65.7882 217.1425 0055190 310.9871 110.2155 14.02682618 59924

Suivez COSMOS 1375 DEB en temps réel avec AllMySat

Download on the App Store